Year,Month,Day,Hour,Minute,Value (Times are PST for temperature in C)
2015,05,30,00,00,14.60
2015,05,30,00,01,14.60
2015,05,30,00,02,14.60
2015,05,30,00,03,14.60
2015,05,30,00,04,14.50
2015,05,30,00,05,14.50
2015,05,30,00,06,14.50
2015,05,30,00,07,14.50
2015,05,30,00,08,14.40
2015,05,30,00,09,14.40
2015,05,30,00,10,14.40
2015,05,30,00,11,14.40
2015,05,30,00,12,14.40
2015,05,30,00,13,14.40
2015,05,30,00,14,14.30
2015,05,30,00,15,14.30
2015,05,30,00,16,14.30
2015,05,30,00,17,14.30
2015,05,30,00,18,14.30
2015,05,30,00,19,14.20
2015,05,30,00,20,14.20
2015,05,30,00,21,14.20
2015,05,30,00,22,14.20
2015,05,30,00,23,14.20
2015,05,30,00,24,14.20
2015,05,30,00,25,14.10
2015,05,30,00,26,14.10
2015,05,30,00,27,14.10
2015,05,30,00,28,14.10
2015,05,30,00,29,14.10
2015,05,30,00,30,14.10
2015,05,30,00,31,14.00
2015,05,30,00,32,14.00
2015,05,30,00,33,13.90
2015,05,30,00,34,13.90
2015,05,30,00,35,13.90
2015,05,30,00,36,13.90
2015,05,30,00,37,13.90
2015,05,30,00,38,13.80
2015,05,30,00,39,13.80
2015,05,30,00,40,13.80
2015,05,30,00,41,13.80
2015,05,30,00,42,13.80
2015,05,30,00,43,13.70
2015,05,30,00,44,13.70
2015,05,30,00,45,13.70
2015,05,30,00,46,13.70
2015,05,30,00,47,13.70
2015,05,30,00,48,13.60
2015,05,30,00,49,13.60
2015,05,30,00,50,13.60
2015,05,30,00,51,13.60
2015,05,30,00,52,13.60
2015,05,30,00,53,13.50
2015,05,30,00,54,13.50
2015,05,30,00,55,13.50
2015,05,30,00,56,13.50
2015,05,30,00,57,13.40
2015,05,30,00,58,13.40
2015,05,30,00,59,13.40
2015,05,30,01,00,13.40
2015,05,30,01,01,13.40
2015,05,30,01,02,13.30
2015,05,30,01,03,13.30
2015,05,30,01,04,13.30
2015,05,30,01,05,13.30
2015,05,30,01,06,13.30
2015,05,30,01,07,13.30
2015,05,30,01,08,13.30
2015,05,30,01,09,13.20
2015,05,30,01,10,13.20
2015,05,30,01,11,13.20
2015,05,30,01,12,13.20
2015,05,30,01,13,13.20
2015,05,30,01,14,13.20
2015,05,30,01,15,13.10
2015,05,30,01,16,13.10
2015,05,30,01,17,13.10
2015,05,30,01,18,13.10
2015,05,30,01,19,13.10
2015,05,30,01,20,13.00
2015,05,30,01,21,13.00
2015,05,30,01,22,13.00
2015,05,30,01,23,13.00
2015,05,30,01,24,12.90
2015,05,30,01,25,12.90
2015,05,30,01,26,12.90
2015,05,30,01,27,12.90
2015,05,30,01,28,12.90
2015,05,30,01,29,12.90
2015,05,30,01,30,12.90
2015,05,30,01,31,12.80
2015,05,30,01,32,12.80
2015,05,30,01,33,12.80
2015,05,30,01,34,12.80
2015,05,30,01,35,12.80
2015,05,30,01,36,12.80
2015,05,30,01,37,12.80
2015,05,30,01,38,12.80
2015,05,30,01,39,12.70
2015,05,30,01,40,12.70
2015,05,30,01,41,12.70
2015,05,30,01,42,12.70
2015,05,30,01,43,12.70
2015,05,30,01,44,12.70
2015,05,30,01,45,12.60
2015,05,30,01,46,12.60
2015,05,30,01,47,12.60
2015,05,30,01,48,12.60
2015,05,30,01,49,12.50
2015,05,30,01,50,12.40
2015,05,30,01,51,12.40
2015,05,30,01,52,12.30
2015,05,30,01,53,12.30
2015,05,30,01,54,12.30
2015,05,30,01,55,12.30
2015,05,30,01,56,12.20
2015,05,30,01,57,12.20
2015,05,30,01,58,12.20
2015,05,30,01,59,12.20
2015,05,30,02,00,12.20
2015,05,30,02,01,12.20
2015,05,30,02,02,12.20
2015,05,30,02,03,12.10
2015,05,30,02,04,12.10
2015,05,30,02,05,12.10
2015,05,30,02,06,12.10
2015,05,30,02,07,12.10
2015,05,30,02,08,12.10
2015,05,30,02,09,12.10
2015,05,30,02,10,12.00
2015,05,30,02,11,12.00
2015,05,30,02,12,12.00
2015,05,30,02,13,12.00
2015,05,30,02,14,11.90
2015,05,30,02,15,11.90
2015,05,30,02,16,11.90
2015,05,30,02,17,11.90
2015,05,30,02,18,11.90
2015,05,30,02,19,11.90
2015,05,30,02,20,11.90
2015,05,30,02,21,11.90
2015,05,30,02,22,11.90
2015,05,30,02,23,11.80
2015,05,30,02,24,11.80
2015,05,30,02,25,11.80
2015,05,30,02,26,11.80
2015,05,30,02,27,11.80
2015,05,30,02,28,11.80
2015,05,30,02,29,11.80
2015,05,30,02,30,11.80
2015,05,30,02,31,11.80
2015,05,30,02,32,11.80
2015,05,30,02,33,11.80
2015,05,30,02,34,11.80
2015,05,30,02,35,11.80
2015,05,30,02,36,11.80
2015,05,30,02,37,11.80
2015,05,30,02,38,11.80
2015,05,30,02,39,11.80
2015,05,30,02,40,11.80
2015,05,30,02,41,11.70
2015,05,30,02,42,11.70
2015,05,30,02,43,11.70
2015,05,30,02,44,11.70
2015,05,30,02,45,11.70
2015,05,30,02,46,11.70
2015,05,30,02,47,11.70
2015,05,30,02,48,11.70
2015,05,30,02,49,11.70
2015,05,30,02,50,11.70
2015,05,30,02,51,11.70
2015,05,30,02,52,11.70
2015,05,30,02,53,11.70
2015,05,30,02,54,11.60
2015,05,30,02,55,11.60
2015,05,30,02,56,11.60
2015,05,30,02,57,11.60
2015,05,30,02,58,11.60
2015,05,30,02,59,11.50
2015,05,30,03,00,11.50
2015,05,30,03,01,11.50
2015,05,30,03,02,11.50
2015,05,30,03,03,11.40
2015,05,30,03,04,11.40
2015,05,30,03,05,11.40
2015,05,30,03,06,11.40
2015,05,30,03,07,11.30
2015,05,30,03,08,11.30
2015,05,30,03,09,11.30
2015,05,30,03,10,11.30
2015,05,30,03,11,11.30
2015,05,30,03,12,11.30
2015,05,30,03,13,11.20
2015,05,30,03,14,11.20
2015,05,30,03,15,11.20
2015,05,30,03,16,11.20
2015,05,30,03,17,11.20
2015,05,30,03,18,11.20
2015,05,30,03,19,11.10
2015,05,30,03,20,11.10
2015,05,30,03,21,11.10
2015,05,30,03,22,11.10
2015,05,30,03,23,11.00
2015,05,30,03,24,11.00
2015,05,30,03,25,11.00
2015,05,30,03,26,11.00
2015,05,30,03,27,10.90
2015,05,30,03,28,10.90
2015,05,30,03,29,10.90
2015,05,30,03,30,10.90
2015,05,30,03,31,10.90
2015,05,30,03,32,10.90
2015,05,30,03,33,10.90
2015,05,30,03,34,10.80
2015,05,30,03,35,10.80
2015,05,30,03,36,10.80
2015,05,30,03,37,10.80
2015,05,30,03,38,10.80
2015,05,30,03,39,10.80
2015,05,30,03,40,10.80
2015,05,30,03,41,10.80
2015,05,30,03,42,10.70
2015,05,30,03,43,10.70
2015,05,30,03,44,10.70
2015,05,30,03,45,10.70
2015,05,30,03,46,10.70
2015,05,30,03,47,10.70
2015,05,30,03,48,10.70
2015,05,30,03,49,10.60
2015,05,30,03,50,10.60
2015,05,30,03,51,10.60
2015,05,30,03,52,10.60
2015,05,30,03,53,10.60
2015,05,30,03,54,10.60
2015,05,30,03,55,10.60
2015,05,30,03,56,10.60
2015,05,30,03,57,10.50
2015,05,30,03,58,10.50
2015,05,30,03,59,10.50
2015,05,30,04,00,10.50
2015,05,30,04,01,10.50
2015,05,30,04,02,10.50
2015,05,30,04,03,10.50
2015,05,30,04,04,10.50
2015,05,30,04,05,10.50
2015,05,30,04,06,10.40
2015,05,30,04,07,10.40
2015,05,30,04,08,10.40
2015,05,30,04,09,10.40
2015,05,30,04,10,10.40
2015,05,30,04,11,10.40
2015,05,30,04,12,10.40
2015,05,30,04,13,10.40
2015,05,30,04,14,10.40
2015,05,30,04,15,10.40
2015,05,30,04,16,10.40
2015,05,30,04,17,10.40
2015,05,30,04,18,10.40
2015,05,30,04,19,10.40
2015,05,30,04,20,10.30
2015,05,30,04,21,10.30
2015,05,30,04,22,10.30
2015,05,30,04,23,10.30
2015,05,30,04,24,10.30
2015,05,30,04,25,10.30
2015,05,30,04,26,10.30
2015,05,30,04,27,10.30
2015,05,30,04,28,10.30
2015,05,30,04,29,10.30
2015,05,30,04,30,10.30
2015,05,30,04,31,10.30
2015,05,30,04,32,10.30
2015,05,30,04,33,10.30
2015,05,30,04,34,10.30
2015,05,30,04,35,10.30
2015,05,30,04,36,10.30
2015,05,30,04,37,10.30
2015,05,30,04,38,10.30
2015,05,30,04,39,10.30
2015,05,30,04,40,10.30
2015,05,30,04,41,10.20
2015,05,30,04,42,10.20
2015,05,30,04,43,10.20
2015,05,30,04,44,10.20
2015,05,30,04,45,10.20
2015,05,30,04,46,10.20
2015,05,30,04,47,10.20
2015,05,30,04,48,10.20
2015,05,30,04,49,10.20
2015,05,30,04,50,10.20
2015,05,30,04,51,10.20
2015,05,30,04,52,10.20
2015,05,30,04,53,10.20
2015,05,30,04,54,10.20
2015,05,30,04,55,10.20
2015,05,30,04,56,10.10
2015,05,30,04,57,10.10
2015,05,30,04,58,10.10
2015,05,30,04,59,10.10
2015,05,30,05,00,10.10
2015,05,30,05,01,10.10
2015,05,30,05,02,10.10
2015,05,30,05,03,10.00
2015,05,30,05,04,10.00
2015,05,30,05,05,10.00
2015,05,30,05,06,10.00
2015,05,30,05,07,10.00
2015,05,30,05,08,10.00
2015,05,30,05,09,10.00
2015,05,30,05,10,10.00
2015,05,30,05,11,10.00
2015,05,30,05,12,10.00
2015,05,30,05,13,10.00
2015,05,30,05,14,10.00
2015,05,30,05,15,9.90
2015,05,30,05,16,9.90
2015,05,30,05,17,9.90
2015,05,30,05,18,9.90
2015,05,30,05,19,9.90
2015,05,30,05,20,9.90
2015,05,30,05,21,9.90
2015,05,30,05,22,9.90
2015,05,30,05,23,9.90
2015,05,30,05,24,9.90
2015,05,30,05,25,9.90
2015,05,30,05,26,9.90
2015,05,30,05,27,9.90
2015,05,30,05,28,9.90
2015,05,30,05,29,9.90
2015,05,30,05,30,9.90
2015,05,30,05,31,9.90
2015,05,30,05,32,9.90
2015,05,30,05,33,9.90
2015,05,30,05,34,9.90
2015,05,30,05,35,9.90
2015,05,30,05,36,9.90
2015,05,30,05,37,9.90
2015,05,30,05,38,9.90
2015,05,30,05,39,9.90
2015,05,30,05,40,9.90
2015,05,30,05,41,9.90
2015,05,30,05,42,9.90
2015,05,30,05,43,9.90
2015,05,30,05,44,9.90
2015,05,30,05,45,9.80
2015,05,30,05,46,9.80
2015,05,30,05,47,9.80
2015,05,30,05,48,9.80
2015,05,30,05,49,9.80
2015,05,30,05,50,9.90
2015,05,30,05,51,9.90
2015,05,30,05,52,9.90
2015,05,30,05,53,9.90
2015,05,30,05,54,9.90
2015,05,30,05,55,9.90
2015,05,30,05,56,9.90
2015,05,30,05,57,9.90
2015,05,30,05,58,9.90
2015,05,30,05,59,9.90
2015,05,30,06,00,9.90
2015,05,30,06,01,9.90
2015,05,30,06,02,9.90
2015,05,30,06,03,9.90
2015,05,30,06,04,10.00
2015,05,30,06,05,10.00
2015,05,30,06,06,10.00
2015,05,30,06,07,10.00
2015,05,30,06,08,10.00
2015,05,30,06,09,10.00
2015,05,30,06,10,10.00
2015,05,30,06,11,10.00
2015,05,30,06,12,10.10
2015,05,30,06,13,10.10
2015,05,30,06,14,10.10
2015,05,30,06,15,10.10
2015,05,30,06,16,10.10
2015,05,30,06,17,10.10
2015,05,30,06,18,10.10
2015,05,30,06,19,10.10
2015,05,30,06,20,10.10
2015,05,30,06,21,10.10
2015,05,30,06,22,10.10
2015,05,30,06,23,10.10
2015,05,30,06,24,10.10
2015,05,30,06,25,10.10
2015,05,30,06,26,10.10
2015,05,30,06,27,10.10
2015,05,30,06,28,10.20
2015,05,30,06,29,10.20
2015,05,30,06,30,10.20
2015,05,30,06,31,10.20
2015,05,30,06,32,10.20
2015,05,30,06,33,10.20
2015,05,30,06,34,10.20
2015,05,30,06,35,10.20
2015,05,30,06,36,10.20
2015,05,30,06,37,10.30
2015,05,30,06,38,10.30
2015,05,30,06,39,10.30
2015,05,30,06,40,10.30
2015,05,30,06,41,10.30
2015,05,30,06,42,10.40
2015,05,30,06,43,10.40
2015,05,30,06,44,10.40
2015,05,30,06,45,10.50
2015,05,30,06,46,10.50
2015,05,30,06,47,10.50
2015,05,30,06,48,10.60
2015,05,30,06,49,10.60
2015,05,30,06,50,10.60
2015,05,30,06,51,10.60
2015,05,30,06,52,10.60
2015,05,30,06,53,10.70
2015,05,30,06,54,10.70
2015,05,30,06,55,10.70
2015,05,30,06,56,10.70
2015,05,30,06,57,10.80
2015,05,30,06,58,10.80
2015,05,30,06,59,10.80
2015,05,30,07,00,10.80
2015,05,30,07,01,10.90
2015,05,30,07,02,10.90
2015,05,30,07,03,10.90
2015,05,30,07,04,10.90
2015,05,30,07,05,10.90
2015,05,30,07,06,11.00
2015,05,30,07,07,11.00
2015,05,30,07,08,11.10
2015,05,30,07,09,11.10
2015,05,30,07,10,11.10
2015,05,30,07,11,11.10
2015,05,30,07,12,11.20
2015,05,30,07,13,11.20
2015,05,30,07,14,11.20
2015,05,30,07,15,11.30
2015,05,30,07,16,11.30
2015,05,30,07,17,11.30
2015,05,30,07,18,11.40
2015,05,30,07,19,11.40
2015,05,30,07,20,11.40
2015,05,30,07,21,11.50
2015,05,30,07,22,11.50
2015,05,30,07,23,11.50
2015,05,30,07,24,11.60
2015,05,30,07,25,11.60
2015,05,30,07,26,11.60
2015,05,30,07,27,11.70
2015,05,30,07,28,11.70
2015,05,30,07,29,11.70
2015,05,30,07,30,11.70
2015,05,30,07,31,11.80
2015,05,30,07,32,11.80
2015,05,30,07,33,11.80
2015,05,30,07,34,11.80
2015,05,30,07,35,11.90
2015,05,30,07,36,11.90
2015,05,30,07,37,11.90
2015,05,30,07,38,12.00
2015,05,30,07,39,12.00
2015,05,30,07,40,12.00
2015,05,30,07,41,12.10
2015,05,30,07,42,12.10
2015,05,30,07,43,12.20
2015,05,30,07,44,12.20
2015,05,30,07,45,12.20
2015,05,30,07,46,12.30
2015,05,30,07,47,12.30
2015,05,30,07,48,12.30
2015,05,30,07,49,12.30
2015,05,30,07,50,12.30
2015,05,30,07,51,12.40
2015,05,30,07,52,12.40
2015,05,30,07,53,12.40
2015,05,30,07,54,12.40
2015,05,30,07,55,12.50
2015,05,30,07,56,12.50
2015,05,30,07,57,12.60
2015,05,30,07,58,12.60
2015,05,30,07,59,12.60
2015,05,30,08,00,12.70
2015,05,30,08,01,12.70
2015,05,30,08,02,12.70
2015,05,30,08,03,12.70
2015,05,30,08,04,12.80
2015,05,30,08,05,12.80
2015,05,30,08,06,12.80
2015,05,30,08,07,12.90
2015,05,30,08,08,12.90
2015,05,30,08,09,13.00
2015,05,30,08,10,13.00
2015,05,30,08,11,13.10
2015,05,30,08,12,13.10
2015,05,30,08,13,13.10
2015,05,30,08,14,13.20
2015,05,30,08,15,13.20
2015,05,30,08,16,13.20
2015,05,30,08,17,13.30
2015,05,30,08,18,13.30
2015,05,30,08,19,13.40
2015,05,30,08,20,13.40
2015,05,30,08,21,13.50
2015,05,30,08,22,13.60
2015,05,30,08,23,13.60
2015,05,30,08,24,13.70
2015,05,30,08,25,13.80
2015,05,30,08,26,13.90
2015,05,30,08,27,14.00
2015,05,30,08,28,14.00
2015,05,30,08,29,14.10
2015,05,30,08,30,14.20
2015,05,30,08,31,14.20
2015,05,30,08,32,14.20
2015,05,30,08,33,14.30
2015,05,30,08,34,14.30
2015,05,30,08,35,14.30
2015,05,30,08,36,14.40
2015,05,30,08,37,14.40
2015,05,30,08,38,14.40
2015,05,30,08,39,14.40
2015,05,30,08,40,14.50
2015,05,30,08,41,14.60
2015,05,30,08,42,14.60
2015,05,30,08,43,14.60
2015,05,30,08,44,14.60
2015,05,30,08,45,14.60
2015,05,30,08,46,14.60
2015,05,30,08,47,14.60
2015,05,30,08,48,14.60
2015,05,30,08,49,14.60
2015,05,30,08,50,14.60
2015,05,30,08,51,14.60
2015,05,30,08,52,14.60
2015,05,30,08,53,14.60
2015,05,30,08,54,14.60
2015,05,30,08,55,14.70
2015,05,30,08,56,14.70
2015,05,30,08,57,14.80
2015,05,30,08,58,14.80
2015,05,30,08,59,14.90
2015,05,30,09,00,14.90
2015,05,30,09,01,14.90
2015,05,30,09,02,15.00
2015,05,30,09,03,15.10
2015,05,30,09,04,15.10
2015,05,30,09,05,15.00
2015,05,30,09,06,15.00
2015,05,30,09,07,15.00
2015,05,30,09,08,14.90
2015,05,30,09,09,14.90
2015,05,30,09,10,15.00
2015,05,30,09,11,15.00
2015,05,30,09,12,15.10
2015,05,30,09,13,15.20
2015,05,30,09,14,15.20
2015,05,30,09,15,15.30
2015,05,30,09,16,15.30
2015,05,30,09,17,15.30
2015,05,30,09,18,15.30
2015,05,30,09,19,15.20
2015,05,30,09,20,15.30
2015,05,30,09,21,15.30
2015,05,30,09,22,15.30
2015,05,30,09,23,15.30
2015,05,30,09,24,15.30
2015,05,30,09,25,15.40
2015,05,30,09,26,15.40
2015,05,30,09,27,15.40
2015,05,30,09,28,15.50
2015,05,30,09,29,15.50
2015,05,30,09,30,15.60
2015,05,30,09,31,15.60
2015,05,30,09,32,15.70
2015,05,30,09,33,15.70
2015,05,30,09,34,15.80
2015,05,30,09,35,15.80
2015,05,30,09,36,15.80
2015,05,30,09,37,15.90
2015,05,30,09,38,15.90
2015,05,30,09,39,16.00
2015,05,30,09,40,16.00
2015,05,30,09,41,16.10
2015,05,30,09,42,16.20
2015,05,30,09,43,16.30
2015,05,30,09,44,16.30
2015,05,30,09,45,16.40
2015,05,30,09,46,16.50
2015,05,30,09,47,16.60
2015,05,30,09,48,16.60
2015,05,30,09,49,16.70
2015,05,30,09,50,16.70
2015,05,30,09,51,16.80
2015,05,30,09,52,16.80
2015,05,30,09,53,16.80
2015,05,30,09,54,16.80
2015,05,30,09,55,16.80
2015,05,30,09,56,16.90
2015,05,30,09,57,16.90
2015,05,30,09,58,16.90
2015,05,30,09,59,16.90
2015,05,30,10,00,17.00
2015,05,30,10,01,17.00
2015,05,30,10,02,17.00
2015,05,30,10,03,17.10
2015,05,30,10,04,17.10
2015,05,30,10,05,17.10
2015,05,30,10,06,17.10
2015,05,30,10,07,17.10
2015,05,30,10,08,17.10
2015,05,30,10,09,17.00
2015,05,30,10,10,17.00
2015,05,30,10,11,17.00
2015,05,30,10,12,16.90
2015,05,30,10,13,16.90
2015,05,30,10,14,16.90
2015,05,30,10,15,16.90
2015,05,30,10,16,16.80
2015,05,30,10,17,16.80
2015,05,30,10,18,16.80
2015,05,30,10,19,16.80
2015,05,30,10,20,16.70
2015,05,30,10,21,16.60
2015,05,30,10,22,16.50
2015,05,30,10,23,16.50
2015,05,30,10,24,16.50
2015,05,30,10,25,16.50
2015,05,30,10,26,16.60
2015,05,30,10,27,16.60
2015,05,30,10,28,16.60
2015,05,30,10,29,16.60
2015,05,30,10,30,16.70
2015,05,30,10,31,16.70
2015,05,30,10,32,16.80
2015,05,30,10,33,16.80
2015,05,30,10,34,16.90
2015,05,30,10,35,17.00
2015,05,30,10,36,17.00
2015,05,30,10,37,17.10
2015,05,30,10,38,17.10
2015,05,30,10,39,17.10
2015,05,30,10,40,17.20
2015,05,30,10,41,17.10
2015,05,30,10,42,17.10
2015,05,30,10,43,17.10
2015,05,30,10,44,17.00
2015,05,30,10,45,17.00
2015,05,30,10,46,17.10
2015,05,30,10,47,17.10
2015,05,30,10,48,17.10
2015,05,30,10,49,17.20
2015,05,30,10,50,17.20
2015,05,30,10,51,17.20
2015,05,30,10,52,17.20
2015,05,30,10,53,17.20
2015,05,30,10,54,17.20
2015,05,30,10,55,17.10
2015,05,30,10,56,17.10
2015,05,30,10,57,17.10
2015,05,30,10,58,17.20
2015,05,30,10,59,17.20
2015,05,30,11,00,17.20
2015,05,30,11,01,17.10
2015,05,30,11,02,17.10
2015,05,30,11,03,17.20
2015,05,30,11,04,17.20
2015,05,30,11,05,17.20
2015,05,30,11,06,17.10
2015,05,30,11,07,17.10
2015,05,30,11,08,17.10
2015,05,30,11,09,17.00
2015,05,30,11,10,17.00
2015,05,30,11,11,17.10
2015,05,30,11,12,17.10
2015,05,30,11,13,17.10
2015,05,30,11,14,17.10
2015,05,30,11,15,17.10
2015,05,30,11,16,17.10
2015,05,30,11,17,17.10
2015,05,30,11,18,17.10
2015,05,30,11,19,17.20
2015,05,30,11,20,17.20
2015,05,30,11,21,17.20
2015,05,30,11,22,17.30
2015,05,30,11,23,17.40
2015,05,30,11,24,17.40
2015,05,30,11,25,17.40
2015,05,30,11,26,17.40
2015,05,30,11,27,17.40
2015,05,30,11,28,17.40
2015,05,30,11,29,17.50
2015,05,30,11,30,17.50
2015,05,30,11,31,17.50
2015,05,30,11,32,17.50
2015,05,30,11,33,17.40
2015,05,30,11,34,17.40
2015,05,30,11,35,17.40
2015,05,30,11,36,17.40
2015,05,30,11,37,17.40
2015,05,30,11,38,17.40
2015,05,30,11,39,17.40
2015,05,30,11,40,17.30
2015,05,30,11,41,17.30
2015,05,30,11,42,17.30
2015,05,30,11,43,17.20
2015,05,30,11,44,17.20
2015,05,30,11,45,17.20
2015,05,30,11,46,17.20
2015,05,30,11,47,17.30
2015,05,30,11,48,17.30
2015,05,30,11,49,17.30
2015,05,30,11,50,17.30
2015,05,30,11,51,17.30
2015,05,30,11,52,17.30
2015,05,30,11,53,17.30
2015,05,30,11,54,17.20
2015,05,30,11,55,17.20
2015,05,30,11,56,17.20
2015,05,30,11,57,17.20
2015,05,30,11,58,17.20
2015,05,30,11,59,17.20
2015,05,30,12,00,17.30
2015,05,30,12,01,17.30
2015,05,30,12,02,17.30
2015,05,30,12,03,17.30
2015,05,30,12,04,17.30
2015,05,30,12,05,17.20
2015,05,30,12,06,17.20
2015,05,30,12,07,17.30
2015,05,30,12,08,17.30
2015,05,30,12,09,17.30
2015,05,30,12,10,17.30
2015,05,30,12,11,17.30
2015,05,30,12,12,17.20
2015,05,30,12,13,17.20
2015,05,30,12,14,17.20
2015,05,30,12,15,17.20
2015,05,30,12,16,17.20
2015,05,30,12,17,17.10
2015,05,30,12,18,17.10
2015,05,30,12,19,17.10
2015,05,30,12,20,17.20
2015,05,30,12,21,17.20
2015,05,30,12,22,17.20
2015,05,30,12,23,17.20
2015,05,30,12,24,17.20
2015,05,30,12,25,17.10
2015,05,30,12,26,17.10
2015,05,30,12,27,17.10
2015,05,30,12,28,17.10
2015,05,30,12,29,17.10
2015,05,30,12,30,17.20
2015,05,30,12,31,17.20
2015,05,30,12,32,17.20
2015,05,30,12,33,17.30
2015,05,30,12,34,17.30
2015,05,30,12,35,17.30
2015,05,30,12,36,17.30
2015,05,30,12,37,17.30
2015,05,30,12,38,17.30
2015,05,30,12,39,17.30
2015,05,30,12,40,17.40
2015,05,30,12,41,17.40
2015,05,30,12,42,17.40
2015,05,30,12,43,17.40
2015,05,30,12,44,17.50
2015,05,30,12,45,17.50
2015,05,30,12,46,17.50
2015,05,30,12,47,17.50
2015,05,30,12,48,17.50
2015,05,30,12,49,17.60
2015,05,30,12,50,17.60
2015,05,30,12,51,17.60
2015,05,30,12,52,17.60
2015,05,30,12,53,17.70
2015,05,30,12,54,17.60
2015,05,30,12,55,17.60
2015,05,30,12,56,17.60
2015,05,30,12,57,17.60
2015,05,30,12,58,17.60
2015,05,30,12,59,17.60
2015,05,30,13,00,17.60
2015,05,30,13,01,17.60
2015,05,30,13,02,17.60
2015,05,30,13,03,17.70
2015,05,30,13,04,17.80
2015,05,30,13,05,17.80
2015,05,30,13,06,17.80
2015,05,30,13,07,17.90
2015,05,30,13,08,17.90
2015,05,30,13,09,17.90
2015,05,30,13,10,17.90
2015,05,30,13,11,17.90
2015,05,30,13,12,17.90
2015,05,30,13,13,17.90
2015,05,30,13,14,17.90
2015,05,30,13,15,17.90
2015,05,30,13,16,17.90
2015,05,30,13,17,17.90
2015,05,30,13,18,17.90
2015,05,30,13,19,17.90
2015,05,30,13,20,17.90
2015,05,30,13,21,17.90
2015,05,30,13,22,17.90
2015,05,30,13,23,17.90
2015,05,30,13,24,17.90
2015,05,30,13,25,17.80
2015,05,30,13,26,17.80
2015,05,30,13,27,17.80
2015,05,30,13,28,17.80
2015,05,30,13,29,17.80
2015,05,30,13,30,17.80
2015,05,30,13,31,17.80
2015,05,30,13,32,17.90
2015,05,30,13,33,18.00
2015,05,30,13,34,18.10
2015,05,30,13,35,18.10
2015,05,30,13,36,18.10
2015,05,30,13,37,18.20
2015,05,30,13,38,18.20
2015,05,30,13,39,18.30
2015,05,30,13,40,18.40
2015,05,30,13,41,18.40
2015,05,30,13,42,18.50
2015,05,30,13,43,18.60
2015,05,30,13,44,18.70
2015,05,30,13,45,18.80
2015,05,30,13,46,18.80
2015,05,30,13,47,18.90
2015,05,30,13,48,18.90
2015,05,30,13,49,18.90
2015,05,30,13,50,18.90
2015,05,30,13,51,18.90
2015,05,30,13,52,18.90
2015,05,30,13,53,18.90
2015,05,30,13,54,18.90
2015,05,30,13,55,19.00
2015,05,30,13,56,19.00
2015,05,30,13,57,19.10
2015,05,30,13,58,19.10
2015,05,30,13,59,19.10
2015,05,30,14,00,19.20
2015,05,30,14,01,19.30
2015,05,30,14,02,19.40
2015,05,30,14,03,19.50
2015,05,30,14,04,19.60
2015,05,30,14,05,19.70
2015,05,30,14,06,19.70
2015,05,30,14,07,19.70
2015,05,30,14,08,19.70
2015,05,30,14,09,19.70
2015,05,30,14,10,19.60
2015,05,30,14,11,19.60
2015,05,30,14,12,19.50
2015,05,30,14,13,19.50
2015,05,30,14,14,19.50
2015,05,30,14,15,19.40
2015,05,30,14,16,19.40
2015,05,30,14,17,19.40
2015,05,30,14,18,19.50
2015,05,30,14,19,19.60
2015,05,30,14,20,19.70
2015,05,30,14,21,19.80
2015,05,30,14,22,19.80
2015,05,30,14,23,19.90
2015,05,30,14,24,20.00
2015,05,30,14,25,20.00
2015,05,30,14,26,20.10
2015,05,30,14,27,20.10
2015,05,30,14,28,20.10
2015,05,30,14,29,20.10
2015,05,30,14,30,20.20
2015,05,30,14,31,20.20
2015,05,30,14,32,20.30
2015,05,30,14,33,20.30
2015,05,30,14,34,20.30
2015,05,30,14,35,20.40
2015,05,30,14,36,20.50
2015,05,30,14,37,20.50
2015,05,30,14,38,20.60
2015,05,30,14,39,20.70
2015,05,30,14,40,20.70
2015,05,30,14,41,20.70
2015,05,30,14,42,20.80
2015,05,30,14,43,20.80
2015,05,30,14,44,20.90
2015,05,30,14,45,20.90
2015,05,30,14,46,20.90
2015,05,30,14,47,20.90
2015,05,30,14,48,20.90
2015,05,30,14,49,20.90
2015,05,30,14,50,20.90
2015,05,30,14,51,20.90
2015,05,30,14,52,20.90
2015,05,30,14,53,21.00
2015,05,30,14,54,21.00
2015,05,30,14,55,21.10
2015,05,30,14,56,21.10
2015,05,30,14,57,21.20
2015,05,30,14,58,21.30
2015,05,30,14,59,21.30
2015,05,30,15,00,21.30
2015,05,30,15,01,21.20
2015,05,30,15,02,21.20
2015,05,30,15,03,21.10
2015,05,30,15,04,21.00
2015,05,30,15,05,20.90
2015,05,30,15,06,20.90
2015,05,30,15,07,20.90
2015,05,30,15,08,20.90
2015,05,30,15,09,20.90
2015,05,30,15,10,20.80
2015,05,30,15,11,20.80
2015,05,30,15,12,20.80
2015,05,30,15,13,20.80
2015,05,30,15,14,20.70
2015,05,30,15,15,20.70
2015,05,30,15,16,20.70
2015,05,30,15,17,20.80
2015,05,30,15,18,20.80
2015,05,30,15,19,20.90
2015,05,30,15,20,21.00
2015,05,30,15,21,21.10
2015,05,30,15,22,21.20
2015,05,30,15,23,21.30
2015,05,30,15,24,21.40
2015,05,30,15,25,21.50
2015,05,30,15,26,21.60
2015,05,30,15,27,21.60
2015,05,30,15,28,21.60
2015,05,30,15,29,21.50
2015,05,30,15,30,21.50
2015,05,30,15,31,21.40
2015,05,30,15,32,21.40
2015,05,30,15,33,21.40
2015,05,30,15,34,21.50
2015,05,30,15,35,21.50
2015,05,30,15,36,21.50
2015,05,30,15,37,21.50
2015,05,30,15,38,21.40
2015,05,30,15,39,21.40
2015,05,30,15,40,21.50
2015,05,30,15,41,21.50
2015,05,30,15,42,21.50
2015,05,30,15,43,21.50
2015,05,30,15,44,21.50
2015,05,30,15,45,21.60
2015,05,30,15,46,21.60
2015,05,30,15,47,21.50
2015,05,30,15,48,21.50
2015,05,30,15,49,21.60
2015,05,30,15,50,21.50
2015,05,30,15,51,21.50
2015,05,30,15,52,21.50
2015,05,30,15,53,21.50
2015,05,30,15,54,21.50
2015,05,30,15,55,21.50
2015,05,30,15,56,21.40
2015,05,30,15,57,21.40
2015,05,30,15,58,21.50
2015,05,30,15,59,21.50
2015,05,30,16,00,21.50
2015,05,30,16,01,21.50
2015,05,30,16,02,21.50
2015,05,30,16,03,21.60
2015,05,30,16,04,21.60
2015,05,30,16,05,21.60
2015,05,30,16,06,21.60
2015,05,30,16,07,21.60
2015,05,30,16,08,21.60
2015,05,30,16,09,21.60
2015,05,30,16,10,21.50
2015,05,30,16,11,21.50
2015,05,30,16,12,21.50
2015,05,30,16,13,21.40
2015,05,30,16,14,21.40
2015,05,30,16,15,21.40
2015,05,30,16,16,21.40
2015,05,30,16,17,21.40
2015,05,30,16,18,21.40
2015,05,30,16,19,21.40
2015,05,30,16,20,21.50
2015,05,30,16,21,21.50
2015,05,30,16,22,21.50
2015,05,30,16,23,21.60
2015,05,30,16,24,21.70
2015,05,30,16,25,21.70
2015,05,30,16,26,21.70
2015,05,30,16,27,21.70
2015,05,30,16,28,21.70
2015,05,30,16,29,21.70
2015,05,30,16,30,21.70
2015,05,30,16,31,21.70
2015,05,30,16,32,21.60
2015,05,30,16,33,21.60
2015,05,30,16,34,21.60
2015,05,30,16,35,21.50
2015,05,30,16,36,21.50
2015,05,30,16,37,21.40
2015,05,30,16,38,21.40
2015,05,30,16,39,21.40
2015,05,30,16,40,21.40
2015,05,30,16,41,21.50
2015,05,30,16,42,21.50
2015,05,30,16,43,21.40
2015,05,30,16,44,21.40
2015,05,30,16,45,21.40
2015,05,30,16,46,21.30
2015,05,30,16,47,21.30
2015,05,30,16,48,21.30
2015,05,30,16,49,21.30
2015,05,30,16,50,21.30
2015,05,30,16,51,21.30
2015,05,30,16,52,21.30
2015,05,30,16,53,21.30
2015,05,30,16,54,21.40
2015,05,30,16,55,21.40
2015,05,30,16,56,21.50
2015,05,30,16,57,21.60
2015,05,30,16,58,21.60
2015,05,30,16,59,21.60
2015,05,30,17,00,21.60
2015,05,30,17,01,21.50
2015,05,30,17,02,21.40
2015,05,30,17,03,21.40
2015,05,30,17,04,21.40
2015,05,30,17,05,21.40
2015,05,30,17,06,21.40
2015,05,30,17,07,21.40
2015,05,30,17,08,21.40
2015,05,30,17,09,21.40
2015,05,30,17,10,21.40
2015,05,30,17,11,21.40
2015,05,30,17,12,21.30
2015,05,30,17,13,21.20
2015,05,30,17,14,21.20
2015,05,30,17,15,21.20
2015,05,30,17,16,21.20
2015,05,30,17,17,21.10
2015,05,30,17,18,21.10
2015,05,30,17,19,21.10
2015,05,30,17,20,21.10
2015,05,30,17,21,21.00